When you browse on this site, cookies collect data to enhance your experience and personalize the content and advertising you see.
Visit our Privacy Policy to learn more. By continuing to use the site, you agree to this use of cookies and data.
  • In Sweden
  • List of Countries
  • For 7 days
  • Water Temperature
  • Weather Map
  • Weather Widgets
  • user-avatar
    Login

    Hourly Weather Banfora

    Today, 23 August, Friday

    Time Temperature Precipitation Wind Pressure Humidity
    00:00 +25°C° 0 mm 2 mps 734 mmHg 95%
    01:00 +25°C° 0.1 mm 2 mps 734 mmHg 95%
    02:00 +25°C° 0.1 mm 2 mps 734 mmHg 95%
    03:00 +24°C° 0.1 mm 2 mps 733 mmHg 95%
    04:00 +24°C° 0.4 mm 2 mps 734 mmHg 94%
    05:00 +24°C° 0.4 mm 3 mps 734 mmHg 94%
    06:00 +24°C° 0 mm 3 mps 734 mmHg 94%
    07:00 +25°C° 0.6 mm 3 mps 735 mmHg 93%
    08:00 +25°C° 0.6 mm 4 mps 735 mmHg 91%
    09:00 +25°C° 0.6 mm 4 mps 735 mmHg 90%
    10:00 +26°C° 0.3 mm 4 mps 735 mmHg 87%
    11:00 +27°C° 0.3 mm 5 mps 735 mmHg 83%
    12:00 +28°C° 0.3 mm 5 mps 735 mmHg 80%
    13:00 +28°C° 0.4 mm 4 mps 734 mmHg 79%
    14:00 +29°C° 0.4 mm 4 mps 733 mmHg 78%
    15:00 +29°C° 0.4 mm 4 mps 733 mmHg 77%
    16:00 +28°C° 0.1 mm 3 mps 733 mmHg 80%
    17:00 +27°C° 0.1 mm 3 mps 733 mmHg 83%
    18:00 +26°C° 0.1 mm 2 mps 733 mmHg 87%
    19:00 +26°C° 0.7 mm 2 mps 733 mmHg 88%
    20:00 +26°C° 0.7 mm 2 mps 734 mmHg 89%
    21:00 +25°C° 0.7 mm 2 mps 734 mmHg 91%
    22:00 +25°C° 0.9 mm 2 mps 734 mmHg 92%
    23:00 +25°C° 0.9 mm 2 mps 734 mmHg 92%

    Tomorrow, 24 August, Saturday

    Time Temperature Precipitation Wind Pressure Humidity
    00:00 +25°C° 0.9 mm 2 mps 734 mmHg 93%
    01:00 +24°C° 0.3 mm 2 mps 734 mmHg 94%
    02:00 +24°C° 0.3 mm 2 mps 733 mmHg 95%
    03:00 +24°C° 0.3 mm 2 mps 733 mmHg 97%
    04:00 +24°C° 0.2 mm 2 mps 733 mmHg 96%
    05:00 +24°C° 0.2 mm 3 mps 733 mmHg 96%
    06:00 +24°C° 0.2 mm 3 mps 733 mmHg 96%
    07:00 +24°C° 0.2 mm 3 mps 734 mmHg 96%
    08:00 +24°C° 0.2 mm 3 mps 734 mmHg 96%
    09:00 +24°C° 0.2 mm 3 mps 734 mmHg 95%
    10:00 +24°C° 0.2 mm 3 mps 734 mmHg 93%
    11:00 +25°C° 0.2 mm 4 mps 734 mmHg 91%
    12:00 +25°C° 0.2 mm 5 mps 734 mmHg 88%
    13:00 +25°C° 0.3 mm 5 mps 734 mmHg 89%
    14:00 +25°C° 0.3 mm 5 mps 733 mmHg 89%
    15:00 +25°C° 0.3 mm 5 mps 733 mmHg 89%
    16:00 +25°C° 0 mm 4 mps 733 mmHg 89%
    17:00 +25°C° 0 mm 4 mps 733 mmHg 89%
    18:00 +23°C° 0 mm 4 mps 733 mmHg 89%
    19:00 +24°C° 0 mm 3 mps 734 mmHg 90%
    20:00 +24°C° 0 mm 2 mps 734 mmHg 92%
    21:00 +23°C° 0 mm 2 mps 735 mmHg 93%
    22:00 +23°C° 0 mm 2 mps 735 mmHg 93%
    23:00 +23°C° 0 mm 2 mps 735 mmHg 92%

    Day after tomorrow, 25 August, Sunday

    Time Temperature Precipitation Wind Pressure Humidity
    00:00 +24°C° 0 mm 2 mps 735 mmHg 91%
    01:00 +23°C° 0 mm 2 mps 735 mmHg 91%
    02:00 +22°C° 0 mm 3 mps 734 mmHg 91%
    03:00 +22°C° 0 mm 3 mps 734 mmHg 91%
    04:00 +23°C° 0 mm 2 mps 734 mmHg 92%
    05:00 +23°C° 0 mm 2 mps 734 mmHg 92%
    06:00 +23°C° 0 mm 2 mps 734 mmHg 93%
    07:00 +24°C° 0 mm 2 mps 735 mmHg 91%
    08:00 +24°C° 0 mm 2 mps 735 mmHg 89%
    09:00 +25°C° 0 mm 3 mps 736 mmHg 87%
    10:00 +25°C° 0.1 mm 3 mps 736 mmHg 86%
    11:00 +26°C° 0.1 mm 3 mps 735 mmHg 86%
    12:00 +26°C° 0.1 mm 3 mps 735 mmHg 85%
    13:00 +27°C° 0.1 mm 3 mps 734 mmHg 80%
    14:00 +28°C° 0.1 mm 4 mps 734 mmHg 75%
    15:00 +29°C° 0.1 mm 4 mps 733 mmHg 71%
    16:00 +28°C° 0.6 mm 3 mps 733 mmHg 77%
    17:00 +27°C° 0.6 mm 2 mps 733 mmHg 83%
    18:00 +26°C° 0.6 mm 2 mps 733 mmHg 89%
    19:00 +26°C° 0.3 mm 2 mps 734 mmHg 90%
    20:00 +25°C° 0.3 mm 1 mps 734 mmHg 91%
    21:00 +25°C° 0.3 mm 1 mps 735 mmHg 93%
    22:00 +25°C° 0.1 mm 2 mps 735 mmHg 93%
    23:00 +24°C° 0.1 mm 2 mps 735 mmHg 94%

    26 August, Monday

    Time Temperature Precipitation Wind Pressure Humidity
    00:00 +24°C° 0.1 mm 2 mps 735 mmHg 94%
    01:00 +24°C° 0.1 mm 2 mps 734 mmHg 94%
    02:00 +24°C° 0.1 mm 2 mps 734 mmHg 95%
    03:00 +24°C° 0.1 mm 2 mps 734 mmHg 95%
    04:00 +24°C° 0.1 mm 2 mps 734 mmHg 95%
    05:00 +23°C° 0.1 mm 2 mps 734 mmHg 96%
    06:00 +23°C° 0.1 mm 2 mps 734 mmHg 96%
    07:00 +24°C° 0 mm 2 mps 735 mmHg 93%
    08:00 +25°C° 0 mm 3 mps 735 mmHg 89%
    09:00 +26°C° 0 mm 3 mps 736 mmHg 86%
    10:00 +26°C° 0.2 mm 3 mps 735 mmHg 85%
    11:00 +27°C° 0.2 mm 3 mps 735 mmHg 83%
    12:00 +27°C° 0.2 mm 3 mps 734 mmHg 81%
    13:00 +27°C° 0.3 mm 3 mps 734 mmHg 81%
    14:00 +27°C° 0.3 mm 3 mps 733 mmHg 81%
    15:00 +28°C° 0.3 mm 3 mps 732 mmHg 81%
    16:00 +27°C° 0.1 mm 2 mps 732 mmHg 83%
    17:00 +27°C° 0.1 mm 2 mps 732 mmHg 85%
    18:00 +27°C° 0.1 mm 1 mps 732 mmHg 87%
    19:00 +26°C° 0.5 mm 1 mps 733 mmHg 89%
    20:00 +25°C° 0.5 mm 1 mps 734 mmHg 91%
    21:00 +25°C° 0.5 mm 1 mps 734 mmHg 93%
    22:00 +25°C° 0.6 mm 1 mps 734 mmHg 94%
    23:00 +24°C° 0.6 mm 1 mps 734 mmHg 95%

    27 August, Tuesday

    Time Temperature Precipitation Wind Pressure Humidity
    00:00 +24°C° 0.6 mm 1 mps 734 mmHg 96%
    01:00 +24°C° 0.4 mm 2 mps 734 mmHg 96%
    02:00 +24°C° 0.4 mm 2 mps 733 mmHg 95%
    03:00 +24°C° 0.4 mm 2 mps 733 mmHg 95%
    04:00 +24°C° 0.2 mm 2 mps 733 mmHg 96%
    05:00 +23°C° 0.2 mm 2 mps 734 mmHg 96%
    06:00 +23°C° 0.2 mm 2 mps 734 mmHg 96%
    07:00 +24°C° 0.1 mm 2 mps 734 mmHg 94%
    08:00 +25°C° 0.1 mm 3 mps 735 mmHg 92%
    09:00 +25°C° 0.1 mm 3 mps 735 mmHg 90%
    10:00 +26°C° 1.3 mm 3 mps 735 mmHg 88%
    11:00 +27°C° 1.3 mm 3 mps 735 mmHg 86%
    12:00 +28°C° 1.3 mm 3 mps 734 mmHg 84%
    13:00 +28°C° 1.1 mm 3 mps 734 mmHg 82%
    14:00 +29°C° 1.1 mm 3 mps 733 mmHg 80%
    15:00 +29°C° 1.1 mm 3 mps 732 mmHg 77%
    16:00 +29°C° 0.4 mm 3 mps 732 mmHg 81%
    17:00 +28°C° 0.4 mm 2 mps 732 mmHg 84%
    18:00 +27°C° 0.4 mm 2 mps 732 mmHg 88%
    19:00 +27°C° 1 mm 1 mps 733 mmHg 90%
    20:00 +26°C° 1 mm 1 mps 733 mmHg 91%
    21:00 +25°C° 1 mm 1 mps 734 mmHg 93%
    22:00 +25°C° 0.1 mm 1 mps 734 mmHg 93%
    23:00 +25°C° 0.1 mm 1 mps 734 mmHg 94%

    28 August, Wednesday

    Time Temperature Precipitation Wind Pressure Humidity
    00:00 +25°C° 0.1 mm 1 mps 734 mmHg 95%
    01:00 +24°C° 1.3 mm 1 mps 734 mmHg 96%
    02:00 +24°C° 1.3 mm 1 mps 733 mmHg 97%
    03:00 +24°C° 1.3 mm 1 mps 733 mmHg 98%
    04:00 +24°C° 2.1 mm 2 mps 733 mmHg 97%
    05:00 +24°C° 2.1 mm 2 mps 734 mmHg 96%
    06:00 +24°C° 2.1 mm 2 mps 734 mmHg 95%
    07:00 +24°C° 0.4 mm 2 mps 734 mmHg 95%
    08:00 +25°C° 0.4 mm 2 mps 735 mmHg 94%
    09:00 +25°C° 0.4 mm 2 mps 735 mmHg 94%
    10:00 +25°C° 0.4 mm 2 mps 735 mmHg 92%
    11:00 +26°C° 0.4 mm 2 mps 734 mmHg 90%
    12:00 +26°C° 0.4 mm 2 mps 734 mmHg 88%
    13:00 +27°C° 0.8 mm 2 mps 734 mmHg 86%
    14:00 +27°C° 0.8 mm 1 mps 733 mmHg 85%
    15:00 +28°C° 0.8 mm 1 mps 733 mmHg 83%
    16:00 +27°C° 1.2 mm 1 mps 733 mmHg 87%
    17:00 +26°C° 1.2 mm 1 mps 733 mmHg 90%
    18:00 +26°C° 1.2 mm 1 mps 733 mmHg 94%
    19:00 +25°C° 1.1 mm 1 mps 734 mmHg 94%
    20:00 +25°C° 1.1 mm 1 mps 734 mmHg 94%
    21:00 +23°C° 1.1 mm 0 mps 735 mmHg 95%
    22:00 +25°C° 0.4 mm 1 mps 735 mmHg 96%
    23:00 +24°C° 0.4 mm 1 mps 735 mmHg 97%
    Show more